Retour au catalogue

DUTHSAT-2

ActifScienceSSO
NORAD 64530·PAYLOAD·🇬🇷 Greece

Lancé Jun 23, 2025 depuis Vandenberg Space Force Base

Loading…

Prochains Passages (prochaines 24 heures)

TLE

FraisSource: Space-Track

Époque: Sep 14, 2026, 01:37 UTC

1 64530U 25135C   26257.06736386  .00012844  00000-0  46031-3 0  9991
2 64530  97.4701  13.1028 0003768 221.6052 138.4902 15.28864010 68506

Suivez DUTHSAT-2 en temps réel avec AllMySat

Download on the App Store